Weather observations for the past three days for
Oscoda, Oscoda-Wurtsmith Airport
Imperial (Metric)
Date Time (edt) Wind (mph) Vis. (mi.) Weather Sky Cond. Temperature (ºF) Relative Humidity Wind Chill (°F) Heat Index (°F) Pressure Precipitation (in)
Air Dwpt 6 hour altimeter (in) sea level (mb) 1 hr 3 hr 6 hr
Max. Min.
24 03:15 Calm 10.00 Partly Cloudy SCT085 SCT110 59.9 57.4 91% 29.83 0.0
24 02:55 W 5 10.00 Mostly Cloudy SCT095 BKN110 60.6 57.7 90% 29.82 0.0
24 02:35 Calm 10.00 Overcast OVC095 61.2 58.1 90% 29.82 0.0
24 02:15 W 3 10.00 Overcast OVC095 60.8 58.1 91% 29.82 0.0
24 01:55 NW 3 10.00 Overcast OVC095 60.8 58.1 72.7 60.1 91% 29.81 0.0 0.05
24 01:35 N 5 10.00 Overcast OVC095 60.8 58.5 92% 29.8 0.0
24 01:15 Calm 10.00 Partly Cloudy SCT095 60.1 57.7 92% 29.81 0.0
24 00:55 N 5 10.00 Partly Cloudy SCT095 61.3 58.6 91% 29.81 0.0 0.01
24 00:35 NW 7 10.00 Partly Cloudy SCT095 61.5 58.8 91% 29.8 0.0
24 00:15 NW 5 10.00 Fair CLR 61.2 58.6 91% 29.8 0.0
23 23:55 NW 5 10.00 Partly Cloudy SCT110 61.2 57.7 89% 29.79 0.0 0.02
23 23:35 W 5 10.00 Light Rain BKN110 62.2 59.2 90% 29.78 0.0 0.02
23 23:15 N 7 10.00 Light Rain SCT034 SCT049 OVC100 63.9 59.4 85% 29.78 0.0 0.01
23 22:55 NW 12 5.00 Heavy Rain SCT027 BKN037 BKN045 65.8 62.2 88% 29.78 0.0 0.02 0.02
23 22:35 NW 3 10.00 Fair CLR 64.9 61.3 88% 29.77 0.0
23 22:15 W 3 10.00 Fair CLR 65.3 61.2 87% 29.76 0.0
23 21:55 W 3 5.00 Fair with Haze CLR 66.4 61 83% 29.75 0.0
23 21:35 NW 6 1.00 Partly Cloudy with Haze SCT046 SCT055 68 60.8 78% 29.74 0.0
23 21:15 NW 6 10.00 Mostly Cloudy SCT046 SCT055 BKN110 69.8 60.3 72% 29.74 0.0
23 20:35 Calm 10.00 Mostly Cloudy BKN110 71.4 58.6 64% 29.73 0.0
23 19:55 N 6 10.00 Mostly Cloudy BKN110 72.9 57.7 76.6 67.3 59% 29.72 0.0
23 19:35 N 6 10.00 Mostly Cloudy BKN110 74.5 58.3 57% 29.72 0.0
23 19:15 N 6 10.00 Mostly Cloudy BKN110 74.3 57.7 56% 29.71 0.0
23 18:55 N 8 10.00 Mostly Cloudy SCT046 BKN110 74.5 57.2 55% 29.7 0.0
23 18:35 NW 8 G 16 10.00 Overcast OVC100 73.9 56.8 55% 29.7 0.0
23 18:15 NW 7 10.00 Overcast OVC100 74.3 58.1 57% 29.7 0.0
23 17:55 NW 8 10.00 Overcast OVC100 73.8 58.3 59% 29.69 0.0
23 17:35 NW 10 G 16 10.00 Overcast OVC100 73.8 57.7 57% 29.69 0.0
23 17:15 NW 14 10.00 Mostly Cloudy SCT037 BKN100 74.3 57.6 56% 29.68 0.0
23 16:55 N 13 10.00 Partly Cloudy SCT034 SCT085 75.4 57.9 55% 78 29.68 0.0
23 16:35 NW 13 10.00 Overcast SCT033 OVC075 74.3 58.8 59% 29.67 0.0
23 16:15 N 9 10.00 Overcast SCT029 OVC075 75.7 58.8 56% 78 29.67 0.0
23 15:55 N 10 G 18 10.00 Overcast BKN029 BKN049 OVC075 75.2 59.9 59% 78 29.66 0.0
23 15:35 N 13 G 20 10.00 Overcast BKN025 BKN031 OVC049 73.6 61 65% 29.66 0.0
23 15:15 NW 12 G 17 10.00 Mostly Cloudy SCT021 SCT031 BKN041 72.7 62.6 71% 29.65 0.0
23 14:55 NW 9 10.00 Light Rain SCT016 BKN021 OVC039 68.4 64.4 87% 29.65 0.0
23 14:35 NW 16 G 24 7.00 Light Rain BKN019 BKN025 OVC041 68.9 62.2 79% 29.65 0.0
23 14:15 NW 15 G 22 10.00 Overcast SCT023 BKN039 OVC065 74.7 62.2 65% 29.63 0.0
23 13:55 NW 16 G 24 10.00 Overcast SCT018 BKN031 OVC039 73.6 63.1 73.6 68 70% 29.62 0.0
23 13:35 NW 16 G 22 10.00 Overcast SCT018 OVC029 71.2 62.2 73% 29.61 0.0
23 13:15 NW 17 G 24 10.00 Overcast BKN020 BKN024 OVC031 71.4 61.9 72% 29.6 0.0
23 12:55 NW 17 G 25 10.00 Overcast BKN020 OVC029 71.2 61.7 72% 29.6 0.0
23 12:35 NW 16 G 25 10.00 Overcast BKN020 OVC027 71.6 62.6 73% 29.58 0.0
23 12:15 NW 14 G 29 10.00 Overcast OVC020 70.2 62.1 76% 29.57 0.0
23 11:55 NW 13 G 24 10.00 Overcast BKN018 OVC026 71.8 62.6 73% 29.56 0.0
23 11:35 NW 21 G 25 10.00 Overcast and Breezy OVC016 69.4 62.4 78% 29.55 0.0
23 11:15 NW 21 G 29 10.00 Overcast and Breezy OVC018 70.2 62.6 77% 29.54 0.0
23 10:55 W 16 G 28 10.00 Overcast OVC018 70.7 62.4 75% 29.53 0.0
23 10:35 W 20 G 29 10.00 Overcast OVC018 70.7 62.4 75% 29.52 0.0
23 10:15 W 21 G 25 10.00 Overcast and Breezy OVC018 70.2 62.1 76% 29.51 0.0
23 09:55 W 16 G 22 10.00 Overcast OVC018 69.4 61.7 77% 29.52 0.0
23 09:35 W 15 G 26 10.00 Overcast OVC018 69.3 61.7 77% 29.51 0.0
23 09:15 W 15 G 21 10.00 Overcast OVC021 68.9 61.9 78% 29.51 0.0
23 08:55 W 18 G 31 10.00 Overcast BKN019 OVC024 68 61.3 79% 29.5 0.0
23 08:35 W 15 G 24 10.00 Overcast OVC017 68.9 63.1 82% 29.5 0.0
23 08:15 W 17 G 31 10.00 Overcast OVC017 69.4 63.5 82% 29.49 0.0
23 07:55 W 16 G 23 10.00 Mostly Cloudy SCT011 BKN017 BKN023 72 66.2 72.1 70.2 82% 29.48 0.0 0.01
23 07:35 SW 13 10.00 Overcast BKN011 OVC017 71.1 67.3 88% 29.49 0.0
23 07:15 SW 10 10.00 Overcast OVC011 70.7 68 91% 29.49 0.0
23 06:55 SW 12 10.00 Overcast OVC013 70.7 67.8 91% 29.49 0.0 0.01
23 06:35 SW 10 10.00 Overcast SCT010 BKN015 OVC020 70.7 68 91% 29.49 0.0 0.01
23 06:15 SW 10 10.00 Overcast SCT010 BKN014 OVC019 70.7 68 91% 29.5 0.0
23 05:55 SW 10 10.00 Overcast OVC013 70.9 68.2 91% 29.5 0.0
23 05:35 SW 7 10.00 Overcast OVC011 70.2 68.2 93% 29.5 0.0
23 05:15 SW 5 10.00 Overcast SCT009 BKN013 OVC023 70.2 68.4 94% 29.5 0.0
23 04:55 SW 5 10.00 Overcast OVC025 70.2 68.2 93% 29.51 0.0
23 04:35 SW 5 10.00 Overcast OVC029 70.2 68.2 93% 29.51 0.0
23 04:15 SW 7 10.00 Overcast BKN031 BKN037 OVC050 70.3 68 92% 29.52 0.0
23 03:55 SW 8 10.00 Overcast BKN050 OVC100 70.2 68 93% 29.53 0.0
23 03:35 SW 8 10.00 Overcast OVC100 70.2 68 93% 29.54 0.0
23 03:15 SW 7 10.00 Mostly Cloudy BKN110 70.2 68 93% 29.55 0.0
23 02:55 SW 8 10.00 Partly Cloudy SCT120 70.5 68.2 92% 29.56 0.0
23 02:35 SW 8 10.00 Rain SCT120 70.9 68.2 91% 29.57 0.0
23 02:15 SW 17 10.00 Light Rain SCT120 71.1 68.4 91% 29.57 0.0
23 01:55 SW 14 G 20 10.00 Light Rain SCT120 70.7 68 72 68.2 91% 29.57 0.0 0.04 0.2
23 01:35 SW 20 G 26 10.00 Light Rain SCT100 BKN120 71.1 67.8 90% 29.59 0.0 0.03
23 01:15 SW 20 G 25 7.00 Light Rain SCT060 SCT080 OVC110 71.1 68.2 91% 29.61 0.0 0.02
23 00:55 SW 20 G 28 7.00 Rain SCT010 SCT034 OVC110 71.2 68.2 90% 29.63 0.0 0.11
23 00:35 SW 20 G 28 7.00 Rain BKN012 BKN034 OVC110 71.6 68.9 91% 29.64 0.0 0.06
23 00:15 SW 16 G 21 7.00 Rain SCT038 BKN090 OVC110 71.8 69.1 91% 29.66 0.0 0.01
22 23:55 SW 13 7.00 Rain SCT065 BKN075 OVC085 71.8 69.3 92% 29.68 0.0 0.01
22 23:35 SW 12 10.00 Overcast SCT044 BKN065 OVC075 72 69.1 91% 29.67 0.0
22 23:15 SW 10 10.00 Overcast SCT041 SCT070 OVC095 71.6 69.1 92% 29.67 0.0
22 22:55 S 8 7.00 Light Rain SCT070 OVC085 70.9 68.9 94% 29.67 0.0 0.03 0.03
22 22:35 S 7 7.00 Overcast SCT050 OVC070 69.8 68 94% 29.68 0.0 0.03
22 22:15 S 3 5.00 Heavy Rain SCT050 BKN060 OVC080 69.3 67.6 95% 29.68 0.0 0.02
22 21:55 S 5 10.00 Overcast BKN050 OVC080 69.3 67.3 93% 29.69 0.0
22 21:35 Calm 5.00 Fog/Mist SCT050 SCT060 OVC080 68.7 67.1 95% 29.7 0.0
22 21:15 Calm 7.00 Overcast SCT004 BKN050 OVC060 68.5 66.7 94% 29.7 0.0
22 20:55 SE 8 7.00 Overcast SCT004 SCT022 OVC046 68.9 67.1 94% 29.7 0.0
22 20:35 SE 8 7.00 Overcast SCT002 OVC048 68.9 67.1 94% 29.71 0.0
22 20:15 SE 8 4.00 Fog/Mist BKN002 OVC050 68.5 67.3 96% 29.72 0.0
22 19:55 SE 9 3.00 Fog/Mist OVC002 68 66.7 68 64.9 96% 29.73 0.0 0.88
22 19:35 SE 8 2.00 Fog/Mist OVC002 67.8 66.6 96% 29.75 0.0
22 19:15 SE 8 2.50 Light Drizzle BKN002 OVC031 67.6 66.2 95% 29.76 0.0
22 18:55 SE 9 5.00 Fog/Mist SCT002 BKN031 OVC037 67.5 66.2 96% 29.77 0.0 0.1
22 18:35 SE 13 4.00 Light Rain SCT002 BKN034 OVC055 68 66.6 95% 29.78 0.0 0.1
22 18:15 SE 13 3.00 Light Rain SCT002 BKN030 OVC041 67.3 66 96% 29.79 0.0 0.09
22 17:55 Calm 0.75 Heavy Rain OVC002 65.7 64.4 96% 29.81 0.0 0.4
22 17:35 Calm 2.50 Rain OVC002 65.3 63.7 95% 29.82 0.0 0.21
22 17:15 Calm 2.00 Heavy Rain OVC002 64.9 63.5 95% 29.83 0.0 0.08
22 16:55 E 3 5.00 Rain OVC002 65.3 63.7 95% 29.83 0.0 0.03 0.31
22 16:35 E 5 5.00 Light Rain OVC002 65.3 63.7 95% 29.84 0.0 0.01
22 16:15 E 5 5.00 Light Rain OVC002 65.1 63.7 95% 29.85 0.0
22 15:55 E 5 7.00 Light Rain OVC002 65.1 63.5 95% 29.87 0.0 0.01
22 15:35 E 6 10.00 Light Rain OVC002 65.7 64 95% 29.88 0.0 0.01
22 15:15 E 5 10.00 Light Rain BKN002 BKN007 OVC041 65.8 64.4 95% 29.9 0.0 0.01
22 14:55 E 6 1.50 Heavy Rain BKN004 OVC007 65.3 63.7 95% 29.9 0.0 0.26
22 14:35 E 3 5.00 Rain OVC004 66.4 64.6 94% 29.91 0.0 0.02
22 14:15 SE 3 7.00 Rain OVC004 66.7 64.6 93% 29.92 0.0 0.01
22 13:55 E 6 7.00 Light Rain OVC004 67.1 64.9 67.3 63.5 93% 29.9 0.0 0.01 0.01
22 13:35 NE 6 7.00 Light Rain OVC004 67.3 64.9 92% 29.92 0.0 0.01
22 13:15 E 3 7.00 Light Rain OVC004 66.9 64.4 92% 29.94 0.0
22 12:55 Calm 10.00 Light Rain OVC004 66.7 64.2 92% 29.95 0.0
22 12:35 Calm 10.00 Light Rain OVC004 66 63.5 92% 29.95 0.0
22 12:15 E 3 10.00 Overcast BKN004 BKN008 OVC015 66.2 63.5 91% 29.95 0.0
22 11:55 E 5 10.00 Light Rain BKN004 OVC011 66.6 63.7 91% 29.96 0.0
22 11:35 E 3 10.00 Overcast OVC002 66.4 63.7 91% 29.97 0.0
22 11:15 E 3 5.00 Fog/Mist OVC002 65.5 63.5 93% 29.97 0.0
22 10:55 SE 3 2.50 Fog/Mist OVC002 65.3 63.3 93% 29.99 0.0
22 10:35 E 3 7.00 Overcast OVC002 65.1 63 93% 29.99 0.0
22 10:15 E 3 10.00 Overcast OVC002 64.8 62.8 93% 30 0.0
22 09:55 E 3 10.00 Overcast OVC002 64.8 63 94% 30 0.0
22 09:35 SE 6 10.00 Overcast OVC002 64.6 62.8 94% 30 0.0
22 09:15 E 5 7.00 Overcast OVC002 64.4 62.8 95% 30.01 0.0
22 08:55 E 6 0.75 Fog/Mist OVC002 64.4 63 95% 30.01 0.0
22 08:35 E 6 0.50 Fog OVC002 64 62.8 96% 30.01 0.0
22 08:15 E 5 1.00 Fog/Mist OVC002 63.7 62.6 96% 30.02 0.0
22 07:55 E 5 0.75 Fog/Mist OVC002 63.5 62.2 64 62.8 96% 30.03 0.0 0.21
22 07:35 NE 7 1.75 Fog/Mist OVC002 63 61.7 96% 30.03 0.0
22 07:15 NE 7 2.50 Fog/Mist OVC002 62.8 61.7 96% 30.04 0.0
22 06:55 NE 7 7.00 Overcast OVC002 62.8 61.7 96% 30.04 0.0 0.07
22 06:35 NE 7 10.00 Overcast OVC002 63.3 61.9 95% 30.05 0.0 0.07
22 06:15 NE 6 5.00 Light Rain OVC002 63.5 62.1 95% 30.05 0.0 0.07
22 05:55 NE 3 4.00 Heavy Rain OVC002 63.5 61.9 95% 30.06 0.0 0.07
22 05:35 Calm 10.00 Overcast OVC002 63.5 61.9 95% 30.06 0.0
22 05:15 NE 3 7.00 Overcast OVC004 63.3 61.9 95% 30.06 0.0
22 04:55 NE 5 10.00 Overcast OVC004 63.5 61.7 94% 30.06 0.0 0.01
22 04:35 NE 5 10.00 Overcast BKN004 OVC012 63.5 61.7 94% 30.05 0.0
22 04:15 NE 6 10.00 Overcast BKN004 OVC015 63.1 61.7 95% 30.06 0.0
22 03:55 NE 6 10.00 Overcast SCT004 OVC017 63.5 61.7 94% 30.06 0.0
22 03:35 NE 5 10.00 Overcast SCT004 OVC017 63.7 61.9 94% 30.07 0.0
22 03:15 NE 5 10.00 Overcast OVC019 63.9 61.7 93% 30.07 0.0
22 02:55 Calm 10.00 Overcast BKN021 OVC030 64 61.9 93% 30.07 0.0 0.01
22 02:35 NE 3 10.00 Light Rain SCT005 BKN015 BKN023 63.9 61.9 93% 30.07 0.0 0.01
22 02:15 SE 6 10.00 Overcast OVC015 64 61.9 93% 30.07 0.0
22 01:55 E 5 10.00 Light Rain SCT011 OVC017 63.7 61.7 66.6 63 93% 30.09 0.0 0.26
22 01:35 N 6 10.00 Light Rain SCT005 OVC009 63.5 61.7 94% 30.1 0.0
22 01:15 NE 7 10.00 Light Rain BKN004 OVC009 63.5 61.2 92% 30.1 0.0
22 00:55 N 8 10.00 Overcast OVC004 63.5 61.7 94% 30.11 0.0
22 00:35 Calm 10.00 Overcast OVC004 63.1 61.2 93% 30.1 0.0
22 00:15 E 5 10.00 Overcast OVC002 63.5 61.5 93% 30.09 0.0
21 23:55 Calm 10.00 Overcast OVC002 63.5 61.7 94% 30.1 0.0
21 23:35 SE 3 10.00 Overcast OVC004 63.7 61.9 94% 30.1 0.0
21 23:15 Calm 10.00 Overcast BKN004 OVC080 63.5 61.7 94% 30.11 0.0
21 22:55 NE 3 10.00 Overcast BKN004 BKN038 OVC080 63.7 61.9 94% 30.11 0.0 0.03 0.26
21 22:35 E 5 10.00 Overcast BKN004 BKN049 OVC080 64.4 62.6 94% 30.12 0.0 0.03
21 22:15 NE 3 7.00 Light Rain OVC004 64.4 62.6 94% 30.12 0.0 0.03
21 21:55 N 3 5.00 Rain SCT004 BKN016 OVC090 64.4 62.6 94% 30.14 0.0 0.18
21 21:35 E 6 7.00 Rain SCT007 BKN060 OVC090 64.8 63.1 95% 30.13 0.0 0.11
21 21:15 N 3 5.00 Heavy Rain BKN005 BKN013 OVC080 64.6 62.8 94% 30.13 0.0 0.06
21 20:55 NE 3 10.00 Light Rain SCT007 SCT025 OVC080 64.6 62.6 93% 30.13 0.0 0.03
21 20:35 NE 3 10.00 Rain BKN009 BKN023 OVC090 65.3 62.2 90% 30.12 0.0 0.01
21 20:15 NE 7 10.00 Overcast OVC009 65.8 62.1 88% 30.13 0.0
21 19:55 NE 3 10.00 Overcast OVC009 66.2 62.2 75.7 66 87% 30.14 0.0
21 19:35 NE 5 10.00 Overcast OVC009 66.2 61.9 86% 30.14 0.0
21 19:15 NE 8 10.00 Overcast BKN009 OVC100 68 62.1 81% 30.14 0.0
21 18:55 NE 7 10.00 Partly Cloudy SCT110 69.4 62.4 78% 30.13 0.0
21 18:35 NE 8 10.00 Fair CLR 68.2 62.1 81% 30.14 0.0
21 18:15 E 8 10.00 Fair CLR 67.3 61.9 83% 30.15 0.0
21 17:55 E 6 10.00 Partly Cloudy SCT075 68.5 61.7 79% 30.14 0.0
21 17:35 NE 8 10.00 Mostly Cloudy BKN075 68 61.3 79% 30.13 0.0
21 17:15 E 8 10.00 Mostly Cloudy BKN075 70.7 61.9 74% 30.14 0.0
21 16:55 NE 8 10.00 Partly Cloudy SCT028 SCT075 71.6 61.7 71% 30.14 0.0
21 16:35 NE 9 10.00 Partly Cloudy SCT028 71.6 61.7 71% 30.15 0.0
21 16:15 E 6 10.00 Fair CLR 72.5 61.7 69% 30.16 0.0
21 15:55 E 8 10.00 Mostly Cloudy SCT028 SCT034 BKN049 73.2 61.7 67% 30.16 0.0
21 15:35 E 8 10.00 Mostly Cloudy SCT028 BKN049 BKN075 72.7 61.5 68% 30.17 0.0
21 15:15 E 9 10.00 Mostly Cloudy SCT075 BKN085 73.4 61.7 67% 30.17 0.0
21 14:55 NE 8 10.00 Overcast SCT075 OVC085 73.8 62.4 68% 30.17 0.0
21 14:35 E 6 10.00 Overcast SCT021 OVC080 74.7 62.4 66% 30.18 0.0
21 14:15 Calm 10.00 Overcast SCT019 OVC080 75 63.9 68% 77 30.18 0.0
21 13:55 Calm 10.00 Mostly Cloudy BKN019 BKN080 74.5 63.9 74.5 66.2 70% 30.2 0.0 0.01
21 13:35 SE 5 10.00 Mostly Cloudy BKN017 BKN055 74.1 63 68% 30.2 0.0
21 13:15 Calm 10.00 Overcast OVC017 71.8 62.1 72% 30.21 0.0
21 12:55 Calm 10.00 Overcast OVC017 71.2 62.8 75% 30.21 0.0
21 12:35 Calm 10.00 Overcast OVC017 70.3 63.1 78% 30.21 0.0
21 12:15 NE 3 10.00 Overcast OVC019 69.6 63.3 81% 30.22 0.0
21 11:55 E 5 10.00 Overcast SCT008 OVC019 68.2 63 84% 30.22 0.0
21 11:35 E 6 10.00 Overcast OVC019 68 62.8 83% 30.23 0.0
21 11:15 NE 7 10.00 Overcast SCT009 OVC021 66.9 61.7 83% 30.23 0.0
21 10:55 NE 6 10.00 Overcast SCT009 OVC021 66.6 62.8 88% 30.23 0.0 0.01 0.01
21 10:35 N 3 10.00 Light Rain OVC021 66.6 62.4 87% 30.24 0.0 0.01
21 10:15 N 7 10.00 Light Rain OVC021 67.5 61.9 82% 30.24 0.0
21 09:55 N 6 10.00 Overcast OVC021 69.3 61.5 77% 30.24 0.0
21 09:35 N 5 10.00 Overcast OVC021 68.4 61.2 78% 30.24 0.0
21 09:15 Calm 10.00 Overcast BKN021 OVC039 68 60.6 77% 30.24 0.0
21 08:55 Calm 10.00 Overcast BKN019 BKN039 OVC110 68.2 60.4 76% 30.24 0.0
21 08:35 Calm 10.00 Overcast SCT019 BKN090 OVC110 67.3 60.3 78% 30.23 0.0
21 08:15 Calm 10.00 Overcast BKN090 OVC110 67.5 60.1 77% 30.23 0.0
21 07:55 Calm 10.00 Overcast SCT041 OVC100 65.7 59.4 65.7 60.1 80% 30.24 0.0
21 07:35 Calm 10.00 Overcast SCT041 SCT050 OVC100 64.4 59.4 84% 30.24 0.0
21 07:15 Calm 10.00 Overcast SCT050 OVC100 63.5 59.2 86% 30.25 0.0
21 06:55 Calm 10.00 Overcast OVC110 63.5 59 85% 30.25 0.0
21 06:35 NE 3 10.00 Overcast SCT050 OVC110 63.1 59 86% 30.24 0.0
21 06:15 N 6 10.00 Overcast SCT050 OVC110 62.4 58.3 86% 30.25 0.0
21 05:55 NE 5 10.00 Mostly Cloudy SCT050 BKN110 62.1 57.7 86% 30.24 0.0
21 05:35 E 3 10.00 Mostly Cloudy BKN050 61 58.1 90% 30.25 0.0
21 05:15 Calm 10.00 Partly Cloudy SCT050 60.1 57.4 91% 30.24 0.0
21 04:55 Calm 10.00 Fair CLR 61 57.7 89% 30.24 0.0
21 04:35 Calm 10.00 Fair CLR 60.6 57.9 91% 30.23 0.0
21 04:15 Calm 10.00 Fair CLR 60.6 57.2 89% 30.24 0.0
21 03:55 Calm 10.00 Fair CLR 61.2 57.4 87% 30.25 0.0
21 03:35 Calm 10.00 Fair CLR 61.3 57.4 87% 30.24 0.0
Date Time (edt) Wind (mph) Vis. (mi.) Weather Sky Cond. Air Dwpt Max. Min. Relative Humidity Wind Chill (°F) Heat Index (°F) altimeter (in) sea level (mb) 1 hr 3 hr 6 hr
6 hour
Temperature (ºF) Pressure Precipitation (in)